TimeAKDT,TemperatureF,Dew PointF,Humidity,Sea Level PressureIn,VisibilityMPH,Wind Direction,Wind SpeedMPH,Gust SpeedMPH,PrecipitationIn,Events,Conditions,WindDirDegrees,DateUTC
1:30 AM,-16.6,-20.2,84,29.90,1.8,North,-9999.0,-,N/A,,Mostly Cloudy,0,2013-03-24 09:30:00
1:35 AM,-16.6,-20.2,84,29.90,2.0,North,-9999.0,-,N/A,,Scattered Clouds,0,2013-03-24 09:35:00
1:53 AM,-17.0,-20.9,82,29.91,1.8,North,-9999.0,-,N/A,,Partly Cloudy,0,2013-03-24 09:53:00
2:53 AM,-17.0,-20.9,82,29.91,1.2,North,-9999.0,-,0.00,,Overcast,0,2013-03-24 10:53:00
3:38 AM,-16.6,-20.2,84,29.91,1.0,North,-9999.0,-,0.00,,Overcast,0,2013-03-24 11:38:00
3:53 AM,-16.1,-20.0,82,29.91,1.0,North,-9999.0,-,0.00,,Overcast,0,2013-03-24 11:53:00
4:05 AM,-16.6,-20.2,84,29.91,1.5,North,-9999.0,-,0.00,,Overcast,0,2013-03-24 12:05:00
4:53 AM,-16.1,-20.0,82,29.92,1.2,North,-9999.0,-,0.00,,Overcast,0,2013-03-24 12:53:00
5:05 AM,-16.6,-20.2,84,29.92,1.2,North,-9999.0,-,N/A,,Overcast,0,2013-03-24 13:05:00
5:32 AM,-16.6,-20.2,84,29.92,1.5,North,-9999.0,-,0.00,,Overcast,0,2013-03-24 13:32:00
5:53 AM,-16.1,-20.0,82,29.93,1.8,North,-9999.0,-,0.00,,Overcast,0,2013-03-24 13:53:00
6:02 AM,-16.6,-20.2,84,29.93,1.8,North,-9999.0,-,N/A,,Overcast,0,2013-03-24 14:02:00
6:20 AM,-16.6,-20.2,84,29.93,1.8,North,-9999.0,-,N/A,,Overcast,0,2013-03-24 14:20:00
6:41 AM,-16.6,-20.2,84,29.93,2.0,North,-9999.0,-,N/A,,Overcast,0,2013-03-24 14:41:00
6:53 AM,-16.1,-20.0,82,29.95,2.5,North,-9999.0,-,N/A,,Overcast,0,2013-03-24 14:53:00
7:38 AM,-16.6,-20.2,84,29.94,1.5,North,-9999.0,-,N/A,,Overcast,0,2013-03-24 15:38:00
7:53 AM,-17.0,-20.9,82,29.95,1.5,North,-9999.0,-,N/A,,Overcast,0,2013-03-24 15:53:00
8:09 AM,-16.6,-20.2,84,29.95,2.5,North,-9999.0,-,N/A,,Overcast,0,2013-03-24 16:09:00
8:19 AM,-18.4,-20.2,91,29.96,4.0,North,-9999.0,-,N/A,,Overcast,0,2013-03-24 16:19:00
8:53 AM,-18.9,-23.1,81,29.97,4.0,North,-9999.0,-,N/A,,Clear,0,2013-03-24 16:53:00
9:53 AM,-18.9,-23.1,81,29.99,4.0,North,-9999.0,-,N/A,,Mostly Cloudy,0,2013-03-24 17:53:00
10:37 AM,-16.6,-20.2,84,29.99,2.5,SW,18.4,-,N/A,,Mist,220,2013-03-24 18:37:00
10:50 AM,-16.6,-22.0,76,29.99,-9999.0,SW,19.6,-,N/A,,Unknown,230,2013-03-24 18:50:00
10:53 AM,-17.0,-22.0,78,30.00,2.5,SW,18.4,-,N/A,,Haze,230,2013-03-24 18:53:00
11:07 AM,-16.6,-20.2,84,29.99,-9999.0,WSW,19.6,-,N/A,,Unknown,240,2013-03-24 19:07:00
11:53 AM,-17.0,-20.9,82,30.01,-9999.0,North,-9999.0,-,N/A,,Unknown,0,2013-03-24 19:53:00
12:10 PM,-16.6,-20.2,84,30.01,2.5,North,-9999.0,-,N/A,,Haze,0,2013-03-24 20:10:00
12:18 PM,-16.6,-20.2,84,30.01,-9999.0,North,-9999.0,-,N/A,,Unknown,0,2013-03-24 20:18:00
12:53 PM,-16.1,-20.0,82,30.03,4.0,North,-9999.0,-,N/A,,Mist,0,2013-03-24 20:53:00
1:53 PM,-14.1,-18.9,79,30.04,10.0,North,-9999.0,-,N/A,,Overcast,0,2013-03-24 21:53:00
2:34 PM,-14.8,-18.4,84,30.04,4.0,North,-9999.0,-,N/A,,Overcast,0,2013-03-24 22:34:00
2:42 PM,-14.8,-18.4,84,30.04,1.8,North,-9999.0,-,N/A,,Overcast,0,2013-03-24 22:42:00
3:29 PM,-13.0,-18.4,77,30.05,6.0,SW,13.8,-,N/A,,Haze,220,2013-03-24 23:29:00
3:53 PM,-13.0,-18.0,78,30.05,10.0,SW,12.7,-,N/A,,Unknown,220,2013-03-24 23:53:00
4:17 PM,-13.0,-16.6,84,30.05,10.0,SW,12.7,-,N/A,,Mostly Cloudy,230,2013-03-25 00:17:00
4:44 PM,-13.0,-16.6,84,30.05,8.0,SW,11.5,-,N/A,,Scattered Clouds,230,2013-03-25 00:44:00
4:53 PM,-13.0,-17.0,82,30.06,10.0,SW,11.5,-,N/A,,Partly Cloudy,230,2013-03-25 00:53:00
5:53 PM,-14.1,-17.0,87,30.06,10.0,SW,9.2,-,N/A,,Clear,220,2013-03-25 01:53:00
6:53 PM,-15.0,-18.0,86,30.08,10.0,SSW,6.9,-,N/A,,Clear,200,2013-03-25 02:53:00
7:53 PM,-16.1,-20.0,82,30.09,10.0,SSW,11.5,-,N/A,,Clear,210,2013-03-25 03:53:00
8:53 PM,-18.9,-23.1,81,30.10,10.0,South,10.4,-,N/A,,Clear,190,2013-03-25 04:53:00
9:53 PM,-20.9,-24.0,86,30.11,10.0,SSW,8.1,-,N/A,,Clear,210,2013-03-25 05:53:00
10:53 PM,-20.9,-25.1,81,30.12,10.0,South,11.5,-,N/A,,Clear,190,2013-03-25 06:53:00
11:53 PM,-22.0,-27.0,77,30.12,10.0,South,9.2,-,N/A,,Clear,190,2013-03-25 07:53:00